| time (UTC) | temp F | wind direction | speed knots | gust knots | rain 1hr in | rain 24hr in | rain mn in | humidity % | barometer mb |
| 20260503193541 | 61 | 331 | 1.7 | 5.2 | 0.00 | 0.00 | 0.00 | 76 | 1016.1 |
| 20260503192541 | 61 | 327 | 1.7 | 5.2 | 0.00 | 0.00 | 0.00 | 75 | 1016.1 |
| 20260503191541 | 61 | 309 | 1.7 | 3.5 | 0.00 | 0.00 | 0.00 | 75 | 1016.0 |
| 20260503190540 | 61 | 289 | 1.7 | 2.6 | 0.00 | 0.00 | 0.00 | 74 | 1016.2 |
| 20260503185541 | 61 | 324 | 1.7 | 3.5 | 0.00 | 0.00 | 0.00 | 73 | 1016.1 |
| 20260503184602 | 62 | 330 | 0.9 | 2.6 | 0.00 | 0.00 | 0.00 | 72 | 1016.2 |
| 20260503183541 | 62 | 186 | 1.7 | 3.5 | 0.00 | 0.00 | 0.00 | 71 | 1016.2 |
| 20260503182601 | 62 | 36 | 0.9 | 3.5 | 0.00 | 0.00 | 0.00 | 72 | 1016.1 |
| 20260503181541 | 62 | 1 | 0.9 | 2.6 | 0.00 | 0.00 | 0.00 | 73 | 1016.1 |
| 20260503180601 | 62 | 116 | 0.9 | 2.6 | 0.00 | 0.00 | 0.00 | 73 | 1016.1 |
| 20260503175541 | 61 | 109 | 0.9 | 2.6 | 0.00 | 0.00 | 0.00 | 75 | 1016.2 |
| 20260503174541 | 60 | 285 | 1.7 | 3.5 | 0.00 | 0.00 | 0.00 | 77 | 1016.1 |
| 20260503173541 | 60 | 34 | 1.7 | 3.5 | 0.00 | 0.00 | 0.00 | 78 | 1016.2 |
| 20260503172541 | 60 | 349 | 0.9 | 5.2 | 0.00 | 0.00 | 0.00 | 77 | 1016.0 |
| 20260503171541 | 59 | 330 | 0.0 | 1.7 | 0.00 | 0.00 | 0.00 | 79 | 1016.0 |
| 20260503170541 | 59 | 309 | 0.9 | 1.7 | 0.00 | 0.00 | 0.00 | 79 | 1016.0 |
| 20260503150542 | 55 | 216 | 0.9 | 1.7 | 0.00 | 0.00 | 0.00 | 90 | 1015.5 |
| 20260503130603 | 54 | 0.0 | 0.9 | 0.00 | 0.00 | 0.00 | 87 | 1012.7 | |
| 20260503110601 | 55 | 72 | 0.0 | 1.7 | 0.00 | 0.00 | 0.00 | 85 | 1013.8 |
| 20260503081601 | 55 | 133 | 1.7 | 3.5 | 0.00 | 0.00 | 0.00 | 85 | 1014.1 |
| 20260503080542 | 55 | 130 | 0.9 | 3.5 | 0.00 | 0.00 | 0.00 | 85 | 1014.2 |
| 20260503072541 | 55 | 102 | 1.7 | 3.5 | 0.00 | 0.00 | 0.00 | 85 | 1014.2 |
| 20260503071601 | 55 | 7 | 0.9 | 3.5 | 0.00 | 0.00 | 0.00 | 85 | 1014.2 |
| 20260503070622 | 55 | 65 | 1.7 | 5.2 | 0.00 | 0.00 | 0.00 | 85 | 1014.2 |
| 20260503054541 | 55 | 353 | 2.6 | 7.8 | 0.00 | 0.00 | 0.00 | 83 | 1012.7 |
| 20260503053541 | 55 | 12 | 2.6 | 5.2 | 0.00 | 0.00 | 0.00 | 83 | 1014.5 |
| 20260503052601 | 55 | 68 | 2.6 | 7.0 | 0.00 | 0.00 | 0.00 | 84 | 1014.4 |
| 20260503051541 | 55 | 67 | 2.6 | 5.2 | 0.00 | 0.00 | 0.00 | 84 | 1014.4 |
| 20260503050542 | 55 | 73 | 2.6 | 7.0 | 0.00 | 0.00 | 0.00 | 85 | 1014.3 |
| 20260503045541 | 55 | 46 | 1.7 | 5.2 | 0.00 | 0.00 | 0.00 | 84 | 1014.3 |
| 20260503044541 | 55 | 52 | 2.6 | 7.8 | 0.00 | 0.00 | 0.00 | 84 | 1014.2 |
| 20260503043601 | 55 | 39 | 1.7 | 6.1 | 0.00 | 0.00 | 0.00 | 85 | 1014.1 |
| 20260503042541 | 55 | 87 | 1.7 | 7.0 | 0.00 | 0.00 | 0.00 | 85 | 1014.0 |
| 20260503041541 | 55 | 1 | 2.6 | 5.2 | 0.00 | 0.00 | 0.00 | 85 | 1013.9 |
| 20260503040541 | 55 | 47 | 2.6 | 7.8 | 0.00 | 0.00 | 0.00 | 85 | 1013.7 |
| 20260503035601 | 55 | 355 | 1.7 | 5.2 | 0.00 | 0.00 | 0.00 | 85 | 1013.6 |
| 20260503034541 | 55 | 102 | 1.7 | 7.8 | 0.00 | 0.00 | 0.00 | 85 | 1013.2 |
| 20260503033541 | 55 | 82 | 1.7 | 7.0 | 0.00 | 0.00 | 0.00 | 85 | 1013.3 |
| 20260503032541 | 56 | 359 | 2.6 | 6.1 | 0.00 | 0.00 | 0.00 | 84 | 1013.3 |
| 20260503031541 | 56 | 119 | 1.7 | 7.8 | 0.00 | 0.00 | 0.00 | 84 | 1013.1 |
| 20260503030541 | 56 | 56 | 2.6 | 7.0 | 0.00 | 0.00 | 0.00 | 83 | 1013.0 |
| 20260503025541 | 56 | 67 | 2.6 | 7.8 | 0.00 | 0.00 | 0.00 | 83 | 1012.8 |
| 20260503024541 | 57 | 56 | 2.6 | 7.0 | 0.00 | 0.00 | 0.00 | 83 | 1012.9 |
| 20260503023621 | 57 | 51 | 2.6 | 7.8 | 0.00 | 0.00 | 0.00 | 82 | 1012.8 |
| 20260503022541 | 57 | 63 | 2.6 | 7.8 | 0.00 | 0.00 | 0.00 | 81 | 1012.3 |
| 20260503021541 | 58 | 35 | 1.7 | 9.6 | 0.00 | 0.00 | 0.00 | 81 | 1012.7 |
| 20260503020541 | 58 | 49 | 2.6 | 11.3 | 0.00 | 0.00 | 0.00 | 80 | 1012.7 |
| 20260503015541 | 59 | 55 | 2.6 | 12.2 | 0.00 | 0.00 | 0.00 | 80 | 1012.7 |
| 20260503014601 | 59 | 329 | 3.5 | 9.6 | 0.00 | 0.00 | 0.00 | 79 | 1012.8 |
| 20260503013541 | 60 | 8 | 2.6 | 7.0 | 0.00 | 0.00 | 0.00 | 78 | 1012.8 |
| 20260503012541 | 60 | 17 | 2.6 | 7.8 | 0.00 | 0.00 | 0.00 | 77 | 1012.7 |
| 20260503011541 | 61 | 79 | 2.6 | 8.7 | 0.00 | 0.00 | 0.00 | 77 | 1012.6 |
| 20260503010541 | 61 | 318 | 4.3 | 9.6 | 0.00 | 0.00 | 0.00 | 75 | 1012.6 |
| 20260503005542 | 62 | 5 | 3.5 | 12.2 | 0.00 | 0.00 | 0.00 | 74 | 1012.5 |
| 20260503004541 | 64 | 35 | 3.5 | 11.3 | 0.00 | 0.00 | 0.00 | 71 | 1012.6 |
| 20260503003541 | 64 | 113 | 2.6 | 11.3 | 0.00 | 0.00 | 0.00 | 71 | 1012.5 |
| 20260503002541 | 65 | 34 | 3.5 | 7.8 | 0.00 | 0.00 | 0.00 | 70 | 1012.5 |
| 20260503001541 | 66 | 96 | 3.5 | 8.7 | 0.00 | 0.00 | 0.00 | 68 | 1012.6 |
| 20260503000541 | 67 | 345 | 3.5 | 8.7 | 0.00 | 0.00 | 0.00 | 67 | 1012.6 |
| 20260502235601 | 68 | 25 | 2.6 | 8.7 | 0.00 | 0.00 | 0.00 | 66 | 1012.5 |
| 20260502234540 | 68 | 52 | 2.6 | 11.3 | 0.00 | 0.00 | 0.00 | 66 | 1012.6 |
| 20260502233541 | 68 | 61 | 2.6 | 8.7 | 0.00 | 0.00 | 0.00 | 65 | 1012.6 |
| 20260502232541 | 69 | 62 | 2.6 | 7.8 | 0.00 | 0.00 | 0.00 | 64 | 1012.6 |
| 20260502231541 | 70 | 353 | 2.6 | 7.8 | 0.00 | 0.00 | 0.00 | 62 | 1011.6 |
| 20260502230541 | 71 | 51 | 2.6 | 7.8 | 0.00 | 0.00 | 0.00 | 61 | 1012.9 |
| 20260502225604 | 71 | 345 | 2.6 | 7.8 | 0.00 | 0.00 | 0.00 | 62 | 1012.3 |
| 20260502224542 | 71 | 32 | 3.5 | 7.0 | 0.00 | 0.00 | 0.00 | 62 | 1013.4 |
| 20260502223542 | 70 | 4 | 1.7 | 7.0 | 0.00 | 0.00 | 0.00 | 61 | 1013.5 |
| 20260502222542 | 71 | 40 | 3.5 | 7.8 | 0.00 | 0.00 | 0.00 | 60 | 1013.7 |
| 20260502221602 | 71 | 38 | 1.7 | 6.1 | 0.00 | 0.00 | 0.00 | 60 | 1013.8 |
| 20260502220601 | 71 | 334 | 1.7 | 5.2 | 0.00 | 0.00 | 0.00 | 61 | 1014.0 |
| 20260502215542 | 71 | 72 | 2.6 | 7.8 | 0.00 | 0.00 | 0.00 | 61 | 1014.1 |
| 20260502214542 | 70 | 33 | 2.6 | 5.2 | 0.00 | 0.00 | 0.00 | 62 | 1014.2 |
| 20260502213541 | 70 | 53 | 2.6 | 5.2 | 0.00 | 0.00 | 0.00 | 61 | 1014.4 |
| 20260502212541 | 70 | 63 | 2.6 | 6.1 | 0.00 | 0.00 | 0.00 | 62 | 1014.5 |
| 20260502211541 | 71 | 55 | 1.7 | 6.1 | 0.00 | 0.00 | 0.00 | 61 | 1014.4 |
| 20260502210541 | 70 | 35 | 1.7 | 5.2 | 0.00 | 0.00 | 0.00 | 62 | 1014.6 |
| 20260502205542 | 69 | 347 | 1.7 | 5.2 | 0.00 | 0.00 | 0.00 | 62 | 1014.8 |
| 20260502204541 | 68 | 57 | 1.7 | 7.0 | 0.00 | 0.00 | 0.00 | 64 | 1014.9 |
| 20260502203541 | 68 | 358 | 2.6 | 6.1 | 0.00 | 0.00 | 0.00 | 64 | 1015.2 |
| 20260502202541 | 68 | 28 | 2.6 | 6.1 | 0.00 | 0.00 | 0.00 | 65 | 1015.5 |
| 20260502201541 | 67 | 359 | 2.6 | 6.1 | 0.00 | 0.00 | 0.00 | 66 | 1015.6 |
| 20260502200541 | 68 | 31 | 1.7 | 6.1 | 0.00 | 0.00 | 0.00 | 66 | 1015.8 |
| 20260502195541 | 67 | 22 | 1.7 | 3.5 | 0.00 | 0.00 | 0.00 | 67 | 1016.0 |
| 20260502194541 | 66 | 354 | 2.6 | 6.1 | 0.00 | 0.00 | 0.00 | 68 | 1016.2 |